Time[GMT],temperature[C](50m),salinity[psu](50m),sigma_t[kg/m^3](50m),dissolved_oxygen[ml/l](50m),oxygen_saturation[ml/l](50m),percent_oxygen_saturation[%](50m),conductivity[msiemens/cm](50m)
2009-09-23 17:00,9.12,32.417,25.077,5.152,6.5487,78.67,34.797
2009-09-23 18:00,8.86,32.427,25.126,5.135,6.5867,77.95,34.579
2009-09-23 19:00,8.87,32.413,25.113,5.126,6.5858,77.84,34.574
2009-09-23 20:00,8.62,32.453,25.183,5.119,6.6214,77.32,34.393
2009-09-23 21:00,8.55,32.446,25.188,5.125,6.6322,77.28,34.325
2009-09-23 22:00,8.50,32.440,25.191,5.121,6.6400,77.13,34.276
2009-09-23 23:00,8.94,32.408,25.099,5.118,6.5756,77.84,34.631
2009-09-24 00:00,9.21,32.400,25.050,5.132,6.5362,78.52,34.860
2009-09-24 01:00,9.34,32.431,25.054,5.126,6.5159,78.67,35.004
2009-09-24 02:00,9.42,32.390,25.009,5.131,6.5060,78.86,35.035
2009-09-24 03:00,8.69,32.455,25.173,5.116,6.6108,77.39,34.456
2009-09-24 04:00,8.99,32.453,25.126,5.131,6.5663,78.14,34.718
2009-09-24 05:00,9.10,32.418,25.082,5.115,6.5516,78.07,34.781
2009-09-24 06:00,9.08,32.401,25.072,5.115,6.5552,78.03,34.747
2009-09-24 07:00,8.81,32.437,25.141,5.115,6.5937,77.58,34.544
2009-09-24 08:00,9.09,32.403,25.071,5.121,6.5537,78.14,34.757
2009-09-24 09:00,8.32,32.476,25.245,5.104,6.6657,76.57,34.152
2009-09-24 10:00,8.56,32.474,25.209,5.131,6.6295,77.39,34.361
2009-09-24 11:00,8.78,32.394,25.112,5.140,6.6000,77.88,34.477
2009-09-24 12:00,8.45,32.503,25.248,5.123,6.6448,77.09,34.292
2009-09-24 13:00,8.29,32.498,25.267,5.119,6.6693,76.76,34.147
2009-09-24 14:00,8.75,32.452,25.162,5.119,6.6020,77.54,34.506
2009-09-24 15:00,9.36,32.407,25.032,5.130,6.5140,78.75,34.999
2009-09-24 16:00,9.55,32.376,24.977,5.121,6.4877,78.94,35.136
2009-09-24 17:00,8.45,32.487,25.235,5.116,6.6455,76.98,34.277
2009-09-24 18:00,8.50,32.482,25.224,5.125,6.6382,77.20,34.316
2009-09-24 19:00,8.85,32.451,25.146,5.118,6.5871,77.69,34.593
2009-09-24 20:00,8.70,32.469,25.184,5.119,6.6087,77.47,34.479
2009-09-24 21:00,8.68,32.465,25.183,5.122,6.6119,77.47,34.457
2009-09-24 22:00,8.80,32.459,25.160,5.136,6.5942,77.88,34.557
2009-09-24 23:00,8.73,32.459,25.171,5.134,6.6047,77.73,34.495
2009-09-25 00:00,8.32,32.501,25.265,5.126,6.6646,76.91,34.176
2009-09-25 01:00,8.59,32.475,25.205,5.120,6.6250,77.28,34.388
2009-09-25 02:00,8.91,32.439,25.127,5.131,6.5788,77.99,34.634
2009-09-25 03:00,8.74,32.458,25.168,5.153,6.6032,78.03,34.503
2009-09-25 04:00,9.07,32.430,25.096,5.140,6.5555,78.41,34.766
2009-09-25 05:00,9.20,32.415,25.064,5.143,6.5370,78.67,34.866
2009-09-25 06:00,8.69,32.474,25.189,5.143,6.6100,77.81,34.475
2009-09-25 07:00,8.76,32.460,25.167,5.140,6.6001,77.88,34.523
2009-09-25 08:00,8.92,32.443,25.129,5.137,6.5771,78.11,34.647
2009-09-25 09:00,8.72,32.456,25.170,5.125,6.6063,77.58,34.484
2009-09-25 10:00,8.66,32.463,25.185,5.134,6.6150,77.62,34.438
2009-09-25 11:00,8.60,32.472,25.201,5.146,6.6236,77.69,34.394
2009-09-25 12:00,8.89,32.448,25.138,5.173,6.5813,78.60,34.625
2009-09-25 13:00,8.56,32.489,25.220,5.175,6.6289,78.07,34.375
2009-09-25 14:00,8.98,32.396,25.083,5.174,6.5702,78.75,34.654
2009-09-25 15:00,9.32,32.365,25.006,5.168,6.5216,79.24,34.923
2009-09-25 16:00,9.05,32.418,25.090,5.167,6.5589,78.78,34.737
2009-09-25 17:00,8.52,32.481,25.220,5.155,6.6352,77.70,34.332
2009-09-25 18:00,8.44,32.481,25.232,5.157,6.6473,77.58,34.262
2009-09-25 19:00,8.40,32.483,25.239,5.157,6.6533,77.51,34.229
2009-09-25 20:00,8.39,32.502,25.255,5.145,6.6540,77.32,34.238
2009-09-25 21:00,8.75,32.469,25.175,5.176,6.6013,78.41,34.522
2009-09-25 22:00,8.97,32.431,25.112,5.166,6.5702,78.63,34.679
2009-09-25 23:00,8.59,32.478,25.207,5.162,6.6248,77.92,34.391
2009-09-26 00:00,8.50,32.462,25.208,5.176,6.6390,77.96,34.297
2009-09-26 01:00,8.65,32.449,25.175,5.153,6.6171,77.88,34.416
2009-09-26 02:00,8.87,32.451,25.143,5.168,6.5842,78.48,34.610
2009-09-26 03:00,9.14,32.388,25.052,5.151,6.5469,78.67,34.787
2009-09-26 04:00,8.33,32.502,25.265,5.122,6.6630,76.87,34.186
2009-09-26 05:00,8.24,32.505,25.280,5.120,6.6766,76.68,34.110
2009-09-26 06:00,8.28,32.496,25.267,5.123,6.6709,76.79,34.136
2009-09-26 07:00,8.54,32.451,25.193,5.134,6.6335,77.39,34.321
2009-09-26 08:00,8.49,32.474,25.219,5.129,6.6401,77.24,34.299
2009-09-26 09:00,9.01,32.425,25.101,5.159,6.5646,78.60,34.708
2009-09-26 10:00,8.89,32.428,25.122,5.134,6.5822,77.99,34.606
2009-09-26 11:00,8.67,32.449,25.172,5.131,6.6141,77.58,34.433
2009-09-26 12:00,8.52,32.480,25.219,5.130,6.6353,77.32,34.331
2009-09-26 13:00,8.47,32.470,25.219,5.139,6.6432,77.36,34.278
2009-09-26 14:00,8.40,32.489,25.244,5.132,6.6530,77.13,34.235
2009-09-26 15:00,8.35,32.491,25.253,5.120,6.6605,76.87,34.193
2009-09-26 16:00,8.30,32.490,25.259,5.098,6.6681,76.45,34.148
2009-09-26 17:00,8.33,32.486,25.252,5.100,6.6637,76.53,34.171
2009-09-26 18:00,8.57,32.461,25.197,5.122,6.6286,77.28,34.357
2009-09-26 19:00,8.41,32.491,25.244,5.118,6.6514,76.94,34.245
2009-09-26 20:00,8.52,32.477,25.216,5.128,6.6354,77.28,34.328
2009-09-26 21:00,8.53,32.474,25.212,5.112,6.6340,77.05,34.334
2009-09-26 22:00,8.61,32.462,25.191,5.105,6.6225,77.09,34.393
2009-09-26 23:00,8.68,32.464,25.182,5.112,6.6120,77.31,34.456
2009-09-27 00:00,8.67,32.465,25.184,5.103,6.6134,77.16,34.448
2009-09-27 01:00,8.81,32.462,25.161,5.119,6.5927,77.65,34.568
2009-09-27 02:00,9.54,32.364,24.969,5.150,6.4897,79.35,35.115
2009-09-27 03:00,9.04,32.414,25.088,5.144,6.5606,78.41,34.724
2009-09-27 04:00,8.54,32.489,25.223,5.128,6.6319,77.32,34.357
2009-09-27 05:00,8.51,32.483,25.223,5.109,6.6367,76.98,34.325
2009-09-27 06:00,8.85,32.416,25.118,5.126,6.5886,77.80,34.559
2009-09-27 07:00,8.82,32.452,25.152,5.133,6.5915,77.88,34.568
2009-09-27 08:00,8.50,32.487,25.227,5.102,6.6380,76.86,34.320
2009-09-27 09:00,8.64,32.465,25.189,5.114,6.6179,77.28,34.422
2009-09-27 10:00,8.57,32.475,25.207,5.117,6.6280,77.20,34.370
2009-09-27 11:00,8.64,32.455,25.182,5.127,6.6183,77.47,34.413
2009-09-27 12:00,8.59,32.471,25.201,5.137,6.6251,77.54,34.384
2009-09-27 13:00,8.55,32.475,25.211,5.137,6.6310,77.47,34.353
2009-09-27 14:00,8.48,32.488,25.231,5.125,6.6410,77.17,34.304
2009-09-27 15:00,8.47,32.469,25.218,5.129,6.6433,77.21,34.277
2009-09-27 16:00,8.38,32.500,25.256,5.116,6.6555,76.87,34.228
2009-09-27 17:00,8.37,32.501,25.258,5.120,6.6570,76.91,34.220
2009-09-27 18:00,8.46,32.482,25.230,5.120,6.6442,77.05,34.281
2009-09-27 19:00,8.55,32.481,25.215,5.117,6.6307,77.17,34.358
2009-09-27 20:00,8.40,32.502,25.254,5.101,6.6525,76.68,34.247
2009-09-27 21:00,8.45,32.470,25.221,5.124,6.6463,77.09,34.260
2009-09-27 22:00,8.50,32.492,25.231,5.122,6.6378,77.17,34.325
2009-09-27 23:00,8.55,32.483,25.216,5.117,6.6307,77.17,34.360
2009-09-28 00:00,8.70,32.376,25.111,5.135,6.6127,77.65,34.390
2009-09-28 01:00,8.31,32.505,25.270,5.109,6.6660,76.64,34.171
2009-09-28 02:00,8.70,32.446,25.166,5.108,6.6097,77.28,34.457
2009-09-28 03:00,8.51,32.481,25.221,5.121,6.6368,77.17,34.323
2009-09-28 04:00,8.42,32.488,25.240,5.107,6.6500,76.79,34.251
2009-09-28 05:00,8.38,32.491,25.248,5.106,6.6560,76.72,34.219
2009-09-28 06:00,8.40,32.486,25.242,5.107,6.6531,76.75,34.232
2009-09-28 07:00,8.49,32.461,25.209,5.099,6.6406,76.79,34.287
2009-09-28 08:00,9.30,32.365,25.009,5.096,6.5245,78.10,34.905
2009-09-28 09:00,9.19,32.367,25.027,5.108,6.5405,78.10,34.810
2009-09-28 10:00,8.80,32.414,25.125,5.130,6.5961,77.77,34.514
2009-09-28 11:00,8.40,32.462,25.223,5.105,6.6542,76.72,34.209
2009-09-28 12:00,8.27,32.502,25.273,5.099,6.6722,76.42,34.133
2009-09-28 13:00,8.24,32.510,25.284,5.094,6.6764,76.30,34.115
2009-09-28 14:00,8.23,32.509,25.285,5.091,6.6780,76.23,34.105
2009-09-28 15:00,8.34,32.476,25.243,5.119,6.6626,76.83,34.170
2009-09-28 16:00,8.28,32.497,25.268,5.105,6.6709,76.53,34.137
2009-09-28 17:00,8.20,32.513,25.292,5.114,6.6824,76.53,34.082
2009-09-28 18:00,8.17,32.514,25.297,5.097,6.6869,76.23,34.057
2009-09-28 19:00,8.16,32.516,25.300,5.099,6.6883,76.23,34.050
2009-09-28 20:00,8.15,32.493,25.284,5.083,6.6908,75.97,34.020
2009-09-28 21:00,8.32,32.440,25.217,5.060,6.6672,75.89,34.118
2009-09-28 22:00,8.28,32.480,25.254,5.113,6.6716,76.64,34.121
2009-09-28 23:00,8.53,32.435,25.182,5.105,6.6357,76.94,34.297
2009-09-29 00:00,8.54,32.439,25.184,5.109,6.6340,77.01,34.310
2009-09-29 01:00,8.47,32.456,25.208,5.109,6.6438,76.90,34.265
2009-09-29 02:00,8.44,32.460,25.215,5.103,6.6482,76.75,34.242
2009-09-29 03:00,8.34,32.469,25.237,5.112,6.6630,76.72,34.163
2009-09-29 04:00,8.22,32.472,25.257,5.095,6.6811,76.27,34.061
2009-09-29 05:00,8.10,32.514,25.308,5.111,6.6976,76.31,33.996
2009-09-29 06:00,8.13,32.503,25.295,5.105,6.6935,76.27,34.012
2009-09-29 07:00,8.31,32.444,25.222,5.071,6.6686,76.04,34.113
2009-09-29 08:00,8.08,32.454,25.263,5.047,6.7032,75.29,33.922
2009-09-29 09:00,8.10,32.426,25.239,5.033,6.7014,75.10,33.913
2009-09-29 10:00,8.25,32.479,25.258,5.097,6.6762,76.34,34.094
2009-09-29 11:00,8.29,32.472,25.247,5.087,6.6704,76.27,34.122
2009-09-29 12:00,8.42,32.465,25.222,5.107,6.6510,76.79,34.229
2009-09-29 13:00,8.52,32.471,25.212,5.105,6.6356,76.94,34.323
2009-09-29 14:00,8.45,32.453,25.208,5.104,6.6470,76.79,34.244
2009-09-29 15:00,8.29,32.467,25.243,5.090,6.6706,76.30,34.118
2009-09-29 16:00,8.22,32.453,25.242,5.078,6.6819,76.00,34.043
2009-09-29 17:00,8.12,32.497,25.291,5.081,6.6953,75.89,33.997
2009-09-29 18:00,8.19,32.483,25.270,5.084,6.6852,76.04,34.045
2009-09-29 19:00,8.16,32.458,25.255,5.030,6.6908,75.17,33.996
2009-09-29 20:00,8.07,32.501,25.302,5.074,6.7027,75.71,33.958
2009-09-29 21:00,8.01,32.503,25.312,5.056,6.7119,75.33,33.907
2009-09-29 22:00,8.04,32.446,25.263,5.034,6.7097,75.03,33.880
2009-09-29 23:00,8.41,32.490,25.243,5.093,6.6515,76.56,34.244
2009-09-30 00:00,8.29,32.511,25.277,5.086,6.6688,76.27,34.159
2009-09-30 01:00,8.72,32.478,25.187,5.119,6.6054,77.50,34.505
2009-09-30 02:00,8.31,32.525,25.285,5.091,6.6651,76.38,34.190
2009-09-30 03:00,8.38,32.509,25.262,5.096,6.6552,76.57,34.236
2009-09-30 04:00,8.49,32.486,25.228,5.101,6.6395,76.83,34.311
2009-09-30 05:00,8.30,32.493,25.262,5.098,6.6680,76.45,34.151
2009-09-30 06:00,8.21,32.488,25.272,5.089,6.6819,76.15,34.068
2009-09-30 07:00,8.10,32.529,25.319,5.083,6.6970,75.89,34.010
2009-09-30 08:00,8.13,32.473,25.272,5.053,6.6947,75.48,33.984
2009-09-30 09:00,8.43,32.395,25.166,5.008,6.6525,75.28,34.172
2009-09-30 10:00,8.39,32.444,25.210,5.079,6.6565,76.30,34.183
2009-09-30 11:00,8.19,32.498,25.282,5.080,6.6845,76.00,34.060
2009-09-30 12:00,8.23,32.516,25.291,5.078,6.6776,76.04,34.112
2009-09-30 13:00,8.37,32.503,25.260,5.079,6.6569,76.30,34.222
2009-09-30 14:00,8.37,32.498,25.255,5.090,6.6572,76.45,34.217
2009-09-30 15:00,8.28,32.517,25.283,5.077,6.6700,76.11,34.156
2009-09-30 16:00,8.19,32.518,25.297,5.067,6.6837,75.81,34.078
2009-09-30 17:00,8.16,32.509,25.295,5.063,6.6886,75.70,34.044
2009-09-30 18:00,8.23,32.490,25.270,5.058,6.6788,75.74,34.087
2009-09-30 19:00,8.32,32.475,25.244,5.061,6.6657,75.92,34.151
2009-09-30 20:00,8.21,32.495,25.277,5.061,6.6816,75.74,34.074
2009-09-30 21:00,8.27,32.480,25.256,5.054,6.6731,75.74,34.112
2009-09-30 22:00,8.19,32.501,25.284,5.043,6.6844,75.44,34.062
2009-09-30 23:00,8.12,32.507,25.299,5.051,6.6948,75.44,34.007
2009-10-01 00:00,8.13,32.519,25.307,5.054,6.6928,75.51,34.027
2009-10-01 01:00,8.10,32.525,25.316,5.047,6.6971,75.36,34.006
2009-10-01 02:00,8.10,32.518,25.311,5.042,6.6974,75.29,34.000
2009-10-01 03:00,8.14,32.503,25.294,5.041,6.6919,75.33,34.021
2009-10-01 04:00,8.12,32.502,25.295,5.041,6.6951,75.29,34.002
2009-10-01 05:00,8.07,32.510,25.309,5.039,6.7024,75.18,33.966
2009-10-01 06:00,8.05,32.519,25.319,5.036,6.7050,75.10,33.957
2009-10-01 07:00,8.05,32.519,25.319,5.031,6.7050,75.03,33.957
2009-10-01 08:00,8.04,32.519,25.320,5.044,6.7066,75.21,33.948
2009-10-01 09:00,8.01,32.514,25.320,5.030,6.7114,74.95,33.917
2009-10-01 10:00,8.19,32.468,25.258,5.018,6.6858,75.06,34.031
2009-10-01 11:00,8.14,32.483,25.278,5.036,6.6928,75.25,34.002
2009-10-01 12:00,8.02,32.510,25.316,5.032,6.7101,74.99,33.922
2009-10-01 14:00,8.04,32.498,25.304,5.007,6.7075,74.65,33.929
2009-10-01 15:00,8.05,32.502,25.305,5.016,6.7058,74.80,33.941
2009-10-01 16:00,8.05,32.493,25.299,5.011,6.7061,74.72,33.933
2009-10-01 17:00,8.04,32.503,25.308,5.022,6.7073,74.87,33.933
2009-10-01 18:00,8.07,32.490,25.293,5.014,6.7032,74.80,33.947
2009-10-01 19:00,8.09,32.474,25.278,5.010,6.7008,74.76,33.950
2009-10-01 20:00,8.28,32.439,25.222,5.011,6.6734,75.09,34.082
2009-10-01 21:00,8.24,32.428,25.220,4.986,6.6799,74.64,34.037
2009-10-01 22:00,8.46,32.369,25.141,4.945,6.6491,74.37,34.173
2009-10-01 23:00,8.25,32.385,25.184,4.926,6.6802,73.74,34.005
2009-10-02 00:00,8.08,32.487,25.289,5.003,6.7018,74.65,33.953
2009-10-02 01:00,8.05,32.483,25.290,4.991,6.7066,74.42,33.923
2009-10-02 02:00,8.16,32.473,25.267,5.004,6.6902,74.80,34.010
2009-10-02 03:00,8.09,32.499,25.297,5.006,6.6998,74.72,33.973
2009-10-02 04:00,8.23,32.491,25.271,5.018,6.6787,75.13,34.088
2009-10-02 05:00,8.20,32.491,25.275,5.011,6.6833,74.98,34.062
2009-10-02 06:00,8.09,32.465,25.271,4.979,6.7012,74.31,33.941
2009-10-02 07:00,8.59,32.359,25.113,4.953,6.6299,74.71,34.277
2009-10-02 08:00,8.46,32.372,25.143,4.947,6.6489,74.41,34.176
2009-10-02 09:00,8.17,32.392,25.202,4.914,6.6921,73.44,33.942
2009-10-02 10:00,8.10,32.393,25.213,4.902,6.7028,73.14,33.882
2009-10-02 11:00,8.05,32.422,25.243,4.909,6.7092,73.17,33.866
2009-10-02 12:00,8.04,32.463,25.277,4.950,6.7090,73.78,33.896
2009-10-02 13:00,8.10,32.472,25.274,4.978,6.6994,74.31,33.956
2009-10-02 14:00,8.12,32.467,25.268,4.981,6.6966,74.38,33.969
2009-10-02 15:00,8.16,32.450,25.249,4.974,6.6912,74.34,33.988
2009-10-02 16:00,8.17,32.496,25.283,4.997,6.6877,74.72,34.040
2009-10-02 17:00,8.24,32.501,25.277,5.009,6.6768,75.02,34.106
2009-10-02 18:00,8.13,32.502,25.294,5.007,6.6935,74.80,34.011
2009-10-02 19:00,8.14,32.479,25.274,4.983,6.6930,74.46,33.998
2009-10-02 20:00,8.12,32.466,25.267,4.966,6.6966,74.15,33.968
2009-10-02 21:00,8.13,32.397,25.212,4.904,6.6980,73.21,33.912
2009-10-02 22:00,8.38,32.358,25.144,4.927,6.6616,73.96,34.093
2009-10-02 23:00,8.29,32.374,25.170,4.929,6.6746,73.85,34.030
2009-10-03 00:00,8.16,32.389,25.200,4.923,6.6938,73.55,33.930
2009-10-03 01:00,8.11,32.452,25.257,4.952,6.6988,73.93,33.946
2009-10-03 02:00,8.09,32.501,25.299,4.966,6.6997,74.12,33.975
2009-10-03 03:00,8.22,32.472,25.257,4.967,6.6811,74.34,34.061
2009-10-03 04:00,8.32,32.451,25.226,4.981,6.6667,74.72,34.129
2009-10-03 05:00,8.21,32.517,25.294,5.007,6.6807,74.95,34.095
2009-10-03 06:00,8.22,32.500,25.279,4.994,6.6798,74.76,34.088
2009-10-03 07:00,8.21,32.450,25.242,4.958,6.6835,74.19,34.032
2009-10-03 08:00,8.22,32.446,25.237,4.947,6.6822,74.04,34.037
2009-10-03 09:00,8.26,32.401,25.196,4.919,6.6780,73.66,34.029
2009-10-03 10:00,8.32,32.367,25.160,4.896,6.6704,73.39,34.049
2009-10-03 11:00,8.42,32.355,25.136,4.912,6.6557,73.81,34.125
2009-10-03 12:00,8.24,32.398,25.196,4.911,6.6812,73.51,34.009
2009-10-03 13:00,8.25,32.404,25.199,4.912,6.6794,73.55,34.023
2009-10-03 14:00,8.21,32.416,25.215,4.934,6.6850,73.81,34.000
2009-10-03 15:00,8.21,32.494,25.276,4.980,6.6817,74.53,34.073
2009-10-03 16:00,8.32,32.502,25.266,5.010,6.6646,75.17,34.177
2009-10-03 17:00,8.27,32.520,25.287,5.000,6.6714,74.94,34.150
2009-10-03 18:00,8.20,32.534,25.309,5.018,6.6815,75.10,34.102
2009-10-03 19:00,8.13,32.557,25.337,5.017,6.6911,74.99,34.063
2009-10-03 20:00,8.18,32.512,25.294,5.010,6.6855,74.95,34.064
2009-10-03 21:00,8.13,32.518,25.306,5.003,6.6928,74.76,34.026
2009-10-03 22:00,8.16,32.496,25.284,4.986,6.6892,74.53,34.031
2009-10-03 23:00,8.12,32.514,25.304,4.985,6.6946,74.46,34.013
2009-10-04 00:00,8.14,32.490,25.283,4.978,6.6925,74.38,34.008
2009-10-04 01:00,8.22,32.538,25.309,5.005,6.6782,74.94,34.124
2009-10-04 02:00,8.36,32.519,25.273,5.017,6.6578,75.36,34.228
2009-10-04 03:00,8.43,32.514,25.259,5.032,6.6474,75.70,34.285
2009-10-04 04:00,8.34,32.515,25.273,4.889,6.6610,73.39,34.207
2009-10-04 05:00,8.23,32.586,25.345,4.990,6.6746,74.76,34.178
2009-10-04 06:00,8.24,32.564,25.327,4.989,6.6741,74.76,34.166
2009-10-04 07:00,8.19,32.551,25.324,5.003,6.6822,74.87,34.110
2009-10-04 08:00,8.13,32.558,25.338,4.987,6.6911,74.53,34.064
2009-10-04 09:00,8.11,32.564,25.346,5.002,6.6939,74.72,34.052
2009-10-04 10:00,8.26,32.518,25.288,4.978,6.6730,74.60,34.140
2009-10-04 11:00,8.25,32.532,25.300,5.002,6.6739,74.94,34.144
2009-10-04 12:00,8.25,32.535,25.302,4.992,6.6738,74.79,34.147
2009-10-04 13:00,8.21,32.545,25.316,5.008,6.6795,74.98,34.121
2009-10-04 14:00,8.20,32.549,25.320,5.010,6.6808,74.98,34.116
2009-10-04 15:00,8.39,32.524,25.273,5.018,6.6530,75.43,34.259
2009-10-04 16:00,8.35,32.557,25.304,5.017,6.6577,75.36,34.255
2009-10-04 17:00,8.45,32.566,25.297,5.035,6.6421,75.81,34.352
2009-10-04 18:00,8.50,32.525,25.258,5.053,6.6364,76.15,34.357
2009-10-04 19:00,8.29,32.549,25.307,5.042,6.6671,75.62,34.195
2009-10-04 20:00,8.22,32.552,25.320,5.027,6.6776,75.28,34.137
2009-10-04 21:00,8.29,32.513,25.279,4.998,6.6687,74.94,34.161
2009-10-04 22:00,8.19,32.590,25.354,4.994,6.6806,74.76,34.146
2009-10-04 23:00,8.32,32.513,25.274,4.989,6.6641,74.87,34.187
2009-10-05 00:00,8.17,32.580,25.349,4.997,6.6841,74.76,34.119
2009-10-05 01:00,8.18,32.592,25.358,4.993,6.6820,74.72,34.140
2009-10-05 02:00,8.34,32.604,25.343,4.986,6.6572,74.90,34.291
2009-10-05 03:00,8.38,32.563,25.305,4.998,6.6529,75.13,34.287
2009-10-05 04:00,8.64,32.624,25.314,5.017,6.6111,75.88,34.574
2009-10-05 05:00,8.80,32.620,25.286,5.026,6.5875,76.29,34.711
2009-10-05 06:00,8.50,32.536,25.266,5.035,6.6359,75.88,34.367
2009-10-05 07:00,8.57,32.592,25.299,5.018,6.6230,75.77,34.482
2009-10-05 08:00,8.33,32.563,25.313,5.002,6.6604,75.09,34.244
2009-10-05 09:00,8.25,32.520,25.291,4.987,6.6744,74.72,34.133
2009-10-05 10:00,8.23,32.516,25.291,4.957,6.6776,74.23,34.112
2009-10-05 11:00,8.19,32.526,25.304,4.958,6.6833,74.19,34.086
2009-10-05 12:00,8.19,32.513,25.294,4.951,6.6839,74.08,34.074
2009-10-05 13:00,8.17,32.512,25.296,4.949,6.6870,74.00,34.055
2009-10-05 14:00,8.15,32.584,25.356,4.981,6.6869,74.49,34.106
2009-10-05 15:00,8.37,32.571,25.312,4.999,6.6540,75.13,34.286
2009-10-05 16:00,8.50,32.559,25.284,5.020,6.6349,75.66,34.389
2009-10-05 17:00,9.06,32.651,25.270,5.015,6.5477,76.59,34.970
2009-10-05 18:00,8.82,32.685,25.334,4.992,6.5817,75.84,34.791
2009-10-05 19:00,8.71,32.645,25.320,4.995,6.5998,75.69,34.656
2009-10-05 20:00,8.56,32.626,25.327,4.993,6.6231,75.39,34.505
2009-10-05 21:00,8.23,32.567,25.330,4.963,6.6755,74.34,34.160
2009-10-05 22:00,8.27,32.530,25.296,4.964,6.6710,74.41,34.160
2009-10-05 23:00,8.22,32.564,25.329,4.961,6.6771,74.30,34.148
2009-10-06 00:00,8.36,32.473,25.238,4.961,6.6597,74.49,34.185
2009-10-06 01:00,8.30,32.487,25.257,4.967,6.6683,74.49,34.145
2009-10-06 02:00,8.40,32.499,25.252,4.983,6.6526,74.90,34.244
2009-10-06 03:00,8.30,32.530,25.291,4.976,6.6664,74.64,34.186
2009-10-06 04:00,8.50,32.533,25.263,4.993,6.6360,75.24,34.364
2009-10-06 05:00,8.52,32.550,25.274,4.985,6.6323,75.16,34.398
2009-10-06 06:00,8.88,32.580,25.242,5.018,6.5773,76.29,34.743
2009-10-06 07:00,8.97,32.657,25.289,5.003,6.5607,76.25,34.897
2009-10-06 08:00,8.79,32.658,25.318,4.993,6.5873,75.80,34.739
2009-10-06 09:00,8.45,32.547,25.282,4.973,6.6430,74.86,34.334
2009-10-06 10:00,8.39,32.546,25.290,4.962,6.6521,74.60,34.280
2009-10-06 11:00,8.25,32.531,25.299,4.941,6.6740,74.04,34.143
2009-10-06 12:00,8.24,32.510,25.284,4.943,6.6764,74.04,34.115
2009-10-06 13:00,8.28,32.453,25.234,4.918,6.6727,73.70,34.096
2009-10-06 14:00,8.25,32.461,25.244,4.916,6.6770,73.62,34.077
2009-10-06 15:00,8.23,32.489,25.269,4.912,6.6788,73.55,34.086
2009-10-06 16:00,8.26,32.523,25.291,4.938,6.6728,74.00,34.144
2009-10-06 17:00,8.39,32.488,25.245,4.954,6.6546,74.45,34.225
2009-10-06 18:00,8.81,32.490,25.183,4.996,6.5915,75.80,34.595
2009-10-06 19:00,8.80,32.578,25.253,5.010,6.5892,76.03,34.671
2009-10-06 20:00,8.89,32.643,25.290,4.980,6.5731,75.76,34.812
2009-10-06 21:00,8.60,32.617,25.314,4.984,6.6174,75.31,34.532
2009-10-06 22:00,8.34,32.495,25.258,4.940,6.6618,74.15,34.188
2009-10-06 23:00,8.26,32.476,25.254,4.924,6.6748,73.77,34.100
2009-10-07 00:00,8.16,32.486,25.277,4.902,6.6896,73.28,34.022
2009-10-07 01:00,8.18,32.443,25.240,4.891,6.6884,73.13,33.999
2009-10-07 02:00,8.18,32.444,25.241,4.886,6.6884,73.06,34.000
2009-10-07 03:00,8.17,32.515,25.298,4.893,6.6869,73.17,34.058
2009-10-07 04:00,8.17,32.507,25.292,4.903,6.6872,73.32,34.051
2009-10-07 05:00,8.35,32.525,25.279,4.943,6.6590,74.22,34.225
2009-10-07 06:00,8.44,32.472,25.225,4.957,6.6477,74.56,34.254
2009-10-07 07:00,8.53,32.462,25.203,4.959,6.6345,74.75,34.323
2009-10-07 08:00,8.38,32.525,25.275,4.949,6.6545,74.37,34.251
2009-10-07 09:00,8.35,32.515,25.272,4.950,6.6594,74.34,34.216
2009-10-07 10:00,8.39,32.486,25.243,4.947,6.6547,74.34,34.223
2009-10-07 11:00,8.57,32.551,25.267,4.952,6.6247,74.75,34.443
2009-10-07 12:00,8.34,32.511,25.270,4.939,6.6612,74.15,34.203
2009-10-07 13:00,8.34,32.521,25.278,4.931,6.6607,74.04,34.213
2009-10-07 14:00,8.58,32.545,25.261,4.953,6.6235,74.79,34.446
2009-10-07 15:00,8.63,32.536,25.246,4.961,6.6164,74.97,34.481
2009-10-07 16:00,8.58,32.577,25.286,4.952,6.6221,74.79,34.476
2009-10-07 17:00,8.54,32.583,25.297,4.932,6.6279,74.41,34.447
2009-10-07 18:00,8.57,32.594,25.301,4.955,6.6229,74.82,34.484
2009-10-07 19:00,8.49,32.578,25.300,4.945,6.6356,74.52,34.398
2009-10-07 20:00,8.71,32.577,25.267,4.968,6.6027,75.24,34.591
2009-10-07 21:00,8.45,32.562,25.294,4.950,6.6423,74.52,34.348
2009-10-07 22:00,8.45,32.602,25.325,4.941,6.6406,74.41,34.386
2009-10-07 23:00,8.40,32.589,25.323,4.940,6.6487,74.30,34.330
2009-10-08 00:00,8.37,32.560,25.304,4.924,6.6545,74.00,34.276
2009-10-08 01:00,8.37,32.554,25.299,4.929,6.6548,74.07,34.270
2009-10-08 02:00,8.37,32.572,25.313,4.926,6.6540,74.03,34.287
2009-10-08 03:00,8.33,32.560,25.310,4.919,6.6606,73.85,34.241
2009-10-08 04:00,8.27,32.564,25.322,4.905,6.6695,73.55,34.192
2009-10-08 05:00,8.36,32.516,25.271,4.914,6.6579,73.81,34.225
2009-10-08 06:00,8.49,32.470,25.215,4.918,6.6402,74.07,34.295
2009-10-08 07:00,8.15,32.565,25.341,4.899,6.6877,73.25,34.088
2009-10-08 08:00,8.18,32.563,25.334,4.898,6.6833,73.28,34.112
2009-10-08 09:00,8.16,32.570,25.343,4.900,6.6860,73.28,34.101
2009-10-08 10:00,8.34,32.544,25.296,4.918,6.6598,73.85,34.234
2009-10-08 11:00,8.29,32.504,25.272,4.902,6.6690,73.51,34.153
2009-10-08 12:00,8.27,32.540,25.303,4.898,6.6705,73.43,34.169
2009-10-08 13:00,8.38,32.501,25.257,4.897,6.6555,73.58,34.229
2009-10-08 14:00,8.39,32.489,25.245,4.884,6.6545,73.39,34.226
2009-10-08 15:00,8.26,32.571,25.329,4.893,6.6707,73.36,34.190
2009-10-08 16:00,8.29,32.556,25.313,4.901,6.6668,73.51,34.202
2009-10-08 17:00,8.44,32.470,25.223,4.879,6.6478,73.39,34.252
2009-10-08 18:00,8.46,32.485,25.231,4.891,6.6441,73.62,34.283
2009-10-08 19:00,8.47,32.481,25.227,4.893,6.6428,73.65,34.288
2009-10-08 20:00,8.46,32.480,25.228,4.889,6.6443,73.58,34.279
2009-10-08 21:00,8.44,32.495,25.242,4.891,6.6467,73.58,34.275
2009-10-08 22:00,8.42,32.488,25.240,4.881,6.6500,73.39,34.251
2009-10-08 23:00,8.37,32.461,25.227,4.859,6.6587,72.98,34.182
2009-10-09 00:00,8.18,32.520,25.301,4.826,6.6851,72.19,34.072
2009-10-09 01:00,8.23,32.549,25.316,4.837,6.6762,72.45,34.143
2009-10-09 02:00,8.23,32.495,25.274,4.872,6.6785,72.94,34.092
2009-10-09 03:00,8.46,32.431,25.189,4.863,6.6464,73.16,34.232
2009-10-09 04:00,8.31,32.572,25.323,4.837,6.6631,72.60,34.235
2009-10-09 05:00,8.24,32.518,25.290,4.844,6.6761,72.56,34.122
2009-10-09 06:00,8.24,32.510,25.284,4.862,6.6764,72.83,34.115
2009-10-09 07:00,8.27,32.532,25.297,4.846,6.6709,72.64,34.162
2009-10-09 08:00,8.24,32.505,25.280,4.855,6.6766,72.72,34.110
2009-10-09 09:00,8.31,32.486,25.255,4.855,6.6668,72.83,34.153
2009-10-09 10:00,8.37,32.473,25.236,4.874,6.6582,73.20,34.193